SCP
0 0 0 0 0 0 0 0 0 0 0 -0 -0 -0 -0 0 0 -0 0 0 0 0 0 0 0 0 -0 0 0 0 -0 0 0 0 0 0 0 0 0 0 0 0 0 0 0 0 0
0 0 0 0 0 0 0 0 0 0 -0 -0 -0 -0 -0 -0 -0 -0 0 -0 0 0 0 -0 0 0 -0 0 0 0 0 0 -0 -0 0 0 0 0 0 0 0 0 0 0 0 0 0
0 0 0 0 0 0 0 0 0 0 -0 -0 -0 -0 -0 -0 -0 -0 -0 -0 -0 -0 -0 -0 0 0 0 0 0 0 0 0 0 0 0 0 0 0 0 0 0 0 0 0 0 0 0
0 0 0 0 0 0 0 0 0 0 -0 -0 -0 0 0 -0 -0 -0 -0 -0 -0 -0 -0 -0 -0 -0 0 0 0 0 -0 0 0 0 0 0 0 0 0 0 0 0 0 0 0 0 0
0 0 0 0 0 0 0 0 0 0 -0 -0 -0 0 0 0 -0 -0 -0 -0 -0 -0 -0 -0 -0 0 0 0 0 0 0 0 0 0 0 0 0 0 0 0 0 0 0 0 0 0 0
0 0 0 0 0 0 0 0 0 0 0 0 -0 -0 -0 -0 -0 -0 -0 -0 0 -0 -0 -0 -0 -0 0 0 0 0 0 0 0 0 0 0 0 0 0 0 0 0 0 0 0 0 0
-0 -0 -0 -0 -0 0 0 -0 -0 0 -0 -0 -0 -0 -0 -0 -0 -0 -0 -0 0 0 0 -0 0 0 0 0 0 0 0 0 0 0 0 0 0 0 0 0 0 0 0 0 0 0 0
-0 -0 -0 -0 -0 -0 0 0 -0 -0 -0 -0 -0 -0 -0 -0 -0 -0 -0 -0 0 0 0 0 -0 -0 -0 -0 0 0 0 0 0 0 0 0 0 0 0 0 0 0 0 0 0 0 0
-0 -0 -0 -0 -0 -0 0 0 -0 -0 -0 -0 -0 -0 -0 -0 -0 -0 -0 0 0 0 0 0 -0 0 0 -0 -0 0 -0 -0 -0 -0 0 0 0 0 0 0 0 0 0 0 0 0 0
-0 -0 -0 -0 -0 -0 -0 -0 0 -0 -0 -0 -0 -0 -0 -0 -0 0 0 0 0 0 0 0 0 0 0 -0 -0 -0 -0 -0 -0 0 0 0 0 0 0 0 0 0 0 0 0 0 0
-0 -0 -0 -0 -0 -0 -0 -0 -0 0 0 -0 -0 -0 -0 -0 -0 -0 0 0 0 -0 0 0 0 -0 -0 0 0 0 0 -0 -0 0 0 0 0 0 0 0 0 0 0 0 0 0 0
-0 -0 -0 -0 -0 -0 -0 -0 -0 0 0 0 0 0 0 0 0 -0 -0 -0 -0 0 0 0 0 0 0 0 0 0 0 -0 0 0 0 -0 0 0 0 0 0 -0 0 0 0 0 0
-0 -0 -0 -0 -0 -0 -0 -0 -0 -0 -0 0 0 0 0 0 -0 0 0 0 -0 0 0 0 0 0 0 0 0 0 0 0 0 0 0 0 0 0 0 0 0 0 0 0 0 0 0
-0 -0 -0 -0 -0 -0 -0 -0 -0 -0 -0 0 0 0 0 0 0 0 0 -0 0 0 0 0 0 0 0 0 0 0 0 0 0 0 0 0 0 0 0 0 0 0 0 0 0 0 0
-0 -0 -0 -0 -0 -0 -0 -0 -0 -0 0 0 0 0 0 -0 0 0 -0 0 0 0 0 0 0 0 0 0 0 0 0 0 0 0 0 0 0 0 0 0 0 0 0 0 0 0 0
-0 -0 -0 -0 -0 -0 -0 -0 -0 -0 0 0 0 0 -0 -0 0 0 0 0 0 0 0 0 0 0 0 0 0 0 0 0 0 0 0 0 0 0 0 0 0 0 0 0 0 0 0
-0 -0 -0 -0 -0 -0 -0 -0 -0 -0 -0 0 0 0 -0 0 0 0 0 0 0 0 0 0 0 0 0 0 0 0 0 0 0 0 0 0 0 0 0 0 0 0 0 0 0 0 0
-0 -0 -0 -0 -0 -0 -0 -0 -0 -0 0 0 -0 0 -0 0 0 0 0 0 0 0 0 0 0 0 0 0 0 0 0 0 0 0 0 0 0 0 0 0 0 0 0 0 0 0 0
-0 -0 -0 -0 -0 -0 -0 -0 -0 -0 -0 -0 0 0 0 -0 0 0 0 0 0 0 0 0 0 0 0 0 0 0 0 0 0 0 0 0 0 0 0 0 0 0 0 0 1 1 0
-0 -0 -0 -0 -0 -0 -0 -0 -0 -0 0 -0 0 0 0 0 0 0 0 0 0 0 0 0 0 0 0 0 0 0 0 0 0 0 0 0 0 0 0 0 0 0 0 0 0 0 0
-0 -0 -0 -0 -0 -0 -0 -0 -0 -0 -0 -0 -0 0 0 0 0 0 0 0 0 0 0 0 0 0 0 0 0 0 0 0 0 0 0 0 0 0 -0 -0 -0 0 -0 -0 0 0 0
-0 -0 -0 -0 -0 -0 -0 -0 -0 -0 -0 0 0 0 0 0 0 0 0 0 0 0 0 0 0 0 0 0 0 0 0 0 0 0 0 0 0 0 -0 -0 0 -0 0 0 0 -0 0
-0 -0 -0 -0 -0 -0 -0 -0 -0 -0 -0 0 0 0 0 0 0 0 0 0 0 0 0 0 0 0 0 0 0 0 0 0 0 0 0 0 0 0 0 0 0 0 0 0 0 0 0
0 -0 -0 -0 -0 -0 -0 -0 -0 -0 -0 0 0 0 0 0 0 0 0 0 0 0 0 0 0 0 0 -0 0 0 0 0 0 0 0 0 0 0 0 -0 0 0 0 0 0 0 0
-0 0 -0 -0 -0 -0 -0 -0 -0 -0 -0 0 0 0 0 0 0 0 0 0 0 0 0 0 0 0 0 0 0 0 0 0 0 0 0 0 0 0 0 -0 0 -0 0 0 0 0 0
-0 -0 0 0 -0 -0 -0 -0 -0 -0 -0 0 0 0 0 0 0 0 0 0 0 0 0 0 0 0 0 0 0 0 0 0 0 0 0 0 0 0 0 0 0 -0 0 0 0 0 -0
-0 -0 -0 0 -0 -0 -0 -0 -0 -0 0 0 0 0 0 0 0 0 0 0 0 0 0 0 0 0 0 0 0 0 0 0 0 0 0 0 0 0 0 0 0 0 -0 0 -0 0 0
-0 -0 -0 0 -0 -0 -0 -0 -0 0 0 0 0 0 0 0 0 0 0 0 0 0 0 0 0 0 0 0 0 0 0 0 0 0 0 0 0 0 0 0 0 0 0 0 0 0 -0
-0 -0 -0 0 -0 -0 -0 -0 0 0 0 0 0 0 0 0 0 0 0 0 0 0 0 0 0 0 0 0 0 0 0 0 0 0 0 0 0 0 0 0 0 0 0 0 0 0 0
Wind_Speed_500mb
21 22 23 24 24 25 24 24 24 24 25 26 26 25 22 20 19 18 18 18 18 19 21 18 17 19 18 11 14 12 9 6 14 27 27 29 31 30 27 28 22 33 24 33 25 24 21
25 25 25 25 25 25 25 25 25 24 24 24 24 24 22 20 18 17 18 18 17 19 18 15 15 17 13 16 11 1 7 9 10 27 26 21 17 20 18 20 28 21 30 21 19 21 13
29 28 27 27 26 25 25 25 24 23 22 22 24 24 23 20 17 16 16 16 17 17 14 14 14 17 17 18 8 10 10 12 19 15 19 21 12 22 13 14 13 12 26 18 22 20 12
31 31 29 28 28 27 26 24 23 22 21 21 22 23 21 18 15 14 16 16 16 14 13 15 14 17 12 9 2 7 13 10 15 15 9 14 16 11 18 9 18 27 28 29 30 22 11
35 34 32 30 28 27 25 24 22 21 20 20 19 20 19 15 14 14 16 15 16 19 21 17 14 4 4 6 10 2 18 11 15 12 9 10 18 14 16 25 21 22 26 39 25 29 16
41 39 35 31 29 27 25 23 21 19 19 19 18 18 17 13 12 13 13 16 18 15 7 12 6 7 9 7 9 0 17 21 15 20 16 14 19 19 22 23 25 24 31 17 33 24 27
47 44 38 33 29 26 24 21 19 17 17 17 16 15 13 9 9 12 15 12 13 1 13 11 16 20 17 15 4 8 17 23 18 19 19 21 20 26 30 27 25 15 24 29 22 23 30
50 48 44 37 31 26 22 19 18 17 15 15 13 11 9 4 7 9 14 7 9 10 15 8 12 11 16 16 6 13 19 27 22 22 11 16 27 17 10 14 20 24 27 29 22 16 24
50 50 49 44 35 27 22 17 15 13 12 11 10 8 5 4 11 6 8 12 23 18 11 8 5 13 9 11 4 7 22 19 20 23 22 28 6 5 21 22 25 28 30 27 31 15 28
51 52 50 49 42 29 22 16 12 10 9 8 7 6 3 7 9 4 2 26 23 12 8 13 20 12 7 1 6 4 19 14 12 15 20 22 24 18 25 26 26 31 29 31 32 28 31
52 54 53 50 48 34 23 18 14 12 10 8 7 6 6 7 8 3 14 26 15 4 2 11 26 11 7 8 17 9 8 18 27 12 14 11 15 19 23 25 22 30 31 28 29 32 34
55 57 57 53 48 43 29 22 18 17 16 14 13 12 10 9 3 10 22 22 8 11 9 11 20 18 11 16 28 17 6 11 14 19 23 35 22 17 29 24 17 23 18 25 24 27 34
59 58 58 56 46 42 35 26 25 26 24 21 20 19 16 11 3 16 19 4 8 9 12 16 19 15 20 20 19 26 19 19 19 13 17 16 26 30 14 30 30 29 31 26 30 29 32
60 60 59 58 52 37 36 26 25 27 30 31 31 28 22 15 13 11 5 3 13 8 18 19 16 10 12 23 15 26 22 11 27 29 20 13 16 6 14 15 23 27 28 30 46 34 35
58 60 59 58 55 40 29 24 17 20 24 26 28 29 30 27 18 9 9 13 10 13 17 20 21 14 8 17 23 18 11 17 19 28 17 23 31 28 28 29 28 29 19 23 32 40 35
55 59 60 57 56 49 29 20 14 6 4 2 11 13 32 28 15 15 9 11 11 17 11 12 16 8 22 23 21 22 13 19 18 29 28 17 33 31 34 24 33 29 26 25 23 37 47
51 55 58 56 54 52 39 22 12 6 5 3 7 3 24 15 21 14 11 10 11 21 23 20 18 22 20 23 25 21 11 14 25 28 34 27 21 33 34 33 34 22 27 32 32 25 34
48 51 54 55 53 51 47 32 13 6 6 5 9 3 27 18 12 8 13 7 8 17 24 12 12 15 15 17 14 12 13 15 20 38 30 22 14 31 39 43 52 31 42 43 31 37 34
47 49 51 53 53 51 48 37 22 6 5 6 7 8 25 8 7 12 12 11 13 17 20 13 12 12 14 11 10 11 12 24 23 32 23 19 11 29 26 24 17 16 35 55 35 37 38
48 49 49 50 53 52 48 43 28 8 3 2 2 2 11 24 13 8 8 10 7 12 11 10 10 5 16 11 4 13 15 15 38 28 16 18 22 27 28 37 31 39 28 24 28 22 39
51 48 48 48 50 51 51 45 34 17 3 7 7 8 5 6 14 13 9 4 9 5 7 17 1 14 14 9 20 5 29 30 29 5 23 9 25 31 36 42 43 47 38 31 17 32 23
55 49 47 47 47 49 50 49 45 28 9 9 4 5 11 10 3 6 1 5 8 6 5 6 12 17 12 11 19 31 32 24 10 17 14 9 18 32 39 42 34 42 31 21 21 20 35
57 52 46 44 45 46 47 48 47 41 23 17 18 15 2 2 5 4 6 3 6 5 3 6 13 17 11 20 29 31 22 19 14 11 18 14 18 24 26 38 37 21 25 2 9 3 6
59 55 50 43 41 41 41 40 40 41 38 23 13 7 3 6 0 6 3 1 3 2 3 5 9 13 20 31 11 7 5 5 7 7 10 21 23 10 16 33 11 14 28 26 13 9 13
59 56 53 48 40 37 36 34 32 30 28 27 21 8 3 5 5 8 4 2 3 6 5 4 9 13 26 15 10 7 9 9 1 9 10 14 19 10 8 17 6 7 8 4 6 10 17
58 56 54 51 46 37 33 31 27 24 22 16 16 12 4 4 5 5 6 3 4 3 12 4 9 10 18 9 4 6 9 11 6 16 4 11 5 13 14 11 9 8 19 16 3 3 7
58 54 56 55 51 45 35 29 26 20 16 14 14 7 2 6 9 8 4 1 2 4 5 2 6 7 14 8 8 8 6 6 10 14 18 17 16 12 12 6 5 20 21 5 7 8 9
58 53 55 58 56 50 43 32 26 22 15 10 9 10 3 8 9 16 12 9 8 7 7 6 10 6 6 8 7 6 7 8 9 13 14 10 11 9 10 4 5 27 8 7 6 4 8
61 54 56 60 60 56 48 40 30 22 18 14 8 13 10 10 7 17 21 19 16 9 7 3 6 4 8 11 4 5 11 6 12 10 5 6 8 9 5 7 4 9 7 3 2 5 7
Wind_Direction_500mb
351 347 342 338 334 333 331 329 328 330 334 332 333 330 321 310 305 309 304 305 302 302 297 303 308 309 313 277 264 242 265 261 211 179 180 185 197 208 223 220 214 228 232 224 250 259 244
347 343 336 331 328 327 326 324 324 326 329 330 331 329 325 317 317 313 309 306 305 299 300 309 307 303 306 264 260 139 144 108 173 177 185 189 209 206 235 233 221 215 232 235 232 231 216
345 340 333 326 324 322 319 316 317 319 322 326 329 331 329 323 319 314 309 304 306 304 313 308 310 305 282 267 226 186 116 124 151 182 196 203 206 200 179 189 209 222 212 204 215 208 209
345 337 331 326 324 319 313 311 309 312 316 321 327 331 329 323 316 315 310 315 316 312 317 311 313 315 265 265 302 237 202 174 165 177 171 203 194 222 231 149 186 210 229 220 180 202 190
351 342 334 328 322 316 311 308 305 306 310 316 322 328 331 327 323 329 330 324 308 308 309 306 306 296 236 176 24 269 186 177 155 172 176 184 190 235 193 212 203 208 226 222 167 199 179
360 351 342 332 323 314 309 306 303 304 306 308 315 327 333 333 344 355 346 324 322 324 322 322 293 249 206 157 340 229 173 159 164 159 164 184 201 213 227 222 226 217 229 231 242 173 219
10 4 356 346 335 322 310 307 304 303 304 304 309 321 334 352 20 53 26 0 344 13 321 279 310 277 291 287 251 172 173 177 163 199 211 201 221 219 216 226 277 288 257 251 225 224 220
17 15 9 359 350 340 329 318 313 310 303 302 310 321 341 33 102 92 39 23 12 320 306 280 302 293 283 242 232 188 170 194 207 231 188 201 232 236 274 233 237 241 245 244 250 273 223
15 15 14 10 1 353 346 336 326 321 316 316 317 326 345 114 142 128 44 360 347 333 262 20 12 18 16 155 221 179 183 218 231 237 227 260 300 276 213 216 234 236 246 247 253 196 228
16 14 14 14 11 4 2 0 357 350 342 341 337 338 57 125 139 201 339 343 340 338 246 48 39 39 7 269 182 323 214 243 228 265 240 261 273 213 229 241 235 254 212 256 249 237 247
19 17 16 15 17 16 15 15 18 19 19 12 16 45 112 138 148 18 322 340 331 302 166 21 28 16 21 345 338 74 208 243 265 220 235 223 202 215 238 244 249 251 260 240 252 252 248
24 22 20 18 19 22 25 27 34 45 52 55 61 73 96 125 119 333 336 334 325 228 69 19 25 3 45 40 37 27 49 235 283 282 238 270 289 276 274 285 257 256 229 234 252 254 245
25 24 23 23 23 27 35 46 63 69 68 70 74 77 79 87 344 330 331 317 225 32 336 10 357 355 37 14 28 13 4 45 21 304 258 267 258 247 296 282 252 235 246 251 238 232 246
24 25 24 25 27 31 36 55 73 79 76 78 81 80 67 37 352 344 67 225 58 33 16 348 344 300 37 14 358 347 348 5 35 351 314 298 272 30 23 325 315 304 251 257 265 260 265
21 24 25 24 26 31 36 48 71 87 89 80 67 63 32 22 26 54 284 45 35 6 352 337 309 321 353 11 331 351 34 15 35 19 349 316 285 319 302 311 291 285 251 284 291 280 276
19 21 24 24 23 24 29 36 45 60 119 96 38 51 19 32 30 33 62 79 87 29 335 329 355 356 328 341 333 330 322 37 5 13 347 320 301 288 305 289 264 250 288 276 238 262 266
17 18 21 24 23 21 22 19 31 60 97 169 10 65 7 17 31 45 55 74 78 39 14 355 343 320 333 344 324 327 15 83 12 352 339 333 295 294 305 278 282 267 248 247 270 273 282
17 18 18 21 24 21 20 20 21 60 113 73 27 26 352 22 56 49 59 32 16 15 14 12 3 341 352 340 324 345 2 11 2 344 325 313 289 286 289 299 291 283 286 286 267 263 252
17 18 17 18 22 23 20 21 20 51 136 61 68 43 12 31 59 88 104 87 50 20 24 7 10 358 347 327 312 339 348 355 2 340 339 325 295 301 294 280 338 354 352 330 319 298 271
17 17 17 17 18 22 24 22 24 32 160 118 108 188 50 54 55 37 114 63 79 43 53 12 14 344 334 315 305 300 316 333 334 332 333 308 283 282 287 294 285 282 286 309 334 301 282
17 16 17 17 17 19 22 27 26 31 122 84 47 73 41 40 57 67 76 64 55 47 34 15 337 3 349 307 318 312 327 328 320 23 308 280 280 286 290 298 286 271 265 276 286 310 303
18 16 15 17 17 18 20 23 32 34 57 106 73 128 83 94 74 84 50 63 28 51 328 44 342 342 334 310 326 317 327 328 338 329 335 321 289 311 295 291 289 271 249 257 265 264 275
16 16 15 15 16 17 19 23 28 39 61 73 77 102 108 116 132 250 55 58 39 329 154 312 329 319 343 348 312 299 294 292 278 315 340 318 316 316 308 338 304 279 22 342 78 5 302
17 17 15 13 14 16 18 23 28 37 47 61 70 71 268 100 113 64 124 265 333 359 343 337 328 329 342 323 299 230 210 166 239 275 306 321 327 333 306 314 11 356 7 344 346 33 23
16 16 15 14 11 11 14 18 25 31 39 47 50 60 30 113 95 156 186 237 233 190 226 300 347 324 326 308 278 271 191 212 171 330 328 346 319 319 307 330 125 13 7 331 342 32 349
14 14 13 12 10 6 6 10 14 21 30 40 40 55 51 238 144 155 183 225 279 235 196 236 352 325 341 296 296 325 23 324 334 339 329 325 263 290 333 318 7 351 0 202 211 169 313
11 11 11 10 7 4 358 357 1 4 9 23 20 27 32 278 183 182 219 314 187 254 295 284 341 341 340 336 17 357 357 310 329 323 333 333 348 352 345 327 98 8 340 303 287 30 6
10 9 8 6 3 360 356 348 345 348 343 342 299 3 2 276 208 213 204 189 192 241 308 62 228 162 308 333 331 26 300 17 277 319 322 313 332 5 324 347 288 6 343 10 34 98 337
8 7 6 3 358 355 351 345 334 330 329 320 303 306 304 258 297 232 227 229 225 234 272 200 1 296 359 306 307 304 287 220 298 310 181 293 337 309 282 278 347 314 338 111 337 343 5
Wind_Speed_850mb
21 22 23 24 24 25 24 24 24 24 25 26 26 25 22 20 19 18 18 18 18 19 21 18 17 19 18 11 14 12 9 6 14 27 27 29 31 30 27 28 22 33 24 33 25 24 21
25 25 25 25 25 25 25 25 25 24 24 24 24 24 22 20 18 17 18 18 17 19 18 15 15 17 13 16 11 1 7 9 10 27 26 21 17 20 18 20 28 21 30 21 19 21 13
29 28 27 27 26 25 25 25 24 23 22 22 24 24 23 20 17 16 16 16 17 17 14 14 14 17 17 18 8 10 10 12 19 15 19 21 12 22 13 14 13 12 26 18 22 20 12
31 31 29 28 28 27 26 24 23 22 21 21 22 23 21 18 15 14 16 16 16 14 13 15 14 17 12 9 2 7 13 10 15 15 9 14 16 11 18 9 18 27 28 29 30 22 11
35 34 32 30 28 27 25 24 22 21 20 20 19 20 19 15 14 14 16 15 16 19 21 17 14 4 4 6 10 2 18 11 15 12 9 10 18 14 16 25 21 22 26 39 25 29 16
41 39 35 31 29 27 25 23 21 19 19 19 18 18 17 13 12 13 13 16 18 15 7 12 6 7 9 7 9 0 17 21 15 20 16 14 19 19 22 23 25 24 31 17 33 24 27
47 44 38 33 29 26 24 21 19 17 17 17 16 15 13 9 9 12 15 12 13 1 13 11 16 20 17 15 4 8 17 23 18 19 19 21 20 26 30 27 25 15 24 29 22 23 30
50 48 44 37 31 26 22 19 18 17 15 15 13 11 9 4 7 9 14 7 9 10 15 8 12 11 16 16 6 13 19 27 22 22 11 16 27 17 10 14 20 24 27 29 22 16 24
50 50 49 44 35 27 22 17 15 13 12 11 10 8 5 4 11 6 8 12 23 18 11 8 5 13 9 11 4 7 22 19 20 23 22 28 6 5 21 22 25 28 30 27 31 15 28
51 52 50 49 42 29 22 16 12 10 9 8 7 6 3 7 9 4 2 26 23 12 8 13 20 12 7 1 6 4 19 14 12 15 20 22 24 18 25 26 26 31 29 31 32 28 31
52 54 53 50 48 34 23 18 14 12 10 8 7 6 6 7 8 3 14 26 15 4 2 11 26 11 7 8 17 9 8 18 27 12 14 11 15 19 23 25 22 30 31 28 29 32 34
55 57 57 53 48 43 29 22 18 17 16 14 13 12 10 9 3 10 22 22 8 11 9 11 20 18 11 16 28 17 6 11 14 19 23 35 22 17 29 24 17 23 18 25 24 27 34
59 58 58 56 46 42 35 26 25 26 24 21 20 19 16 11 3 16 19 4 8 9 12 16 19 15 20 20 19 26 19 19 19 13 17 16 26 30 14 30 30 29 31 26 30 29 32
60 60 59 58 52 37 36 26 25 27 30 31 31 28 22 15 13 11 5 3 13 8 18 19 16 10 12 23 15 26 22 11 27 29 20 13 16 6 14 15 23 27 28 30 46 34 35
58 60 59 58 55 40 29 24 17 20 24 26 28 29 30 27 18 9 9 13 10 13 17 20 21 14 8 17 23 18 11 17 19 28 17 23 31 28 28 29 28 29 19 23 32 40 35
55 59 60 57 56 49 29 20 14 6 4 2 11 13 32 28 15 15 9 11 11 17 11 12 16 8 22 23 21 22 13 19 18 29 28 17 33 31 34 24 33 29 26 25 23 37 47
51 55 58 56 54 52 39 22 12 6 5 3 7 3 24 15 21 14 11 10 11 21 23 20 18 22 20 23 25 21 11 14 25 28 34 27 21 33 34 33 34 22 27 32 32 25 34
48 51 54 55 53 51 47 32 13 6 6 5 9 3 27 18 12 8 13 7 8 17 24 12 12 15 15 17 14 12 13 15 20 38 30 22 14 31 39 43 52 31 42 43 31 37 34
47 49 51 53 53 51 48 37 22 6 5 6 7 8 25 8 7 12 12 11 13 17 20 13 12 12 14 11 10 11 12 24 23 32 23 19 11 29 26 24 17 16 35 55 35 37 38
48 49 49 50 53 52 48 43 28 8 3 2 2 2 11 24 13 8 8 10 7 12 11 10 10 5 16 11 4 13 15 15 38 28 16 18 22 27 28 37 31 39 28 24 28 22 39
51 48 48 48 50 51 51 45 34 17 3 7 7 8 5 6 14 13 9 4 9 5 7 17 1 14 14 9 20 5 29 30 29 5 23 9 25 31 36 42 43 47 38 31 17 32 23
55 49 47 47 47 49 50 49 45 28 9 9 4 5 11 10 3 6 1 5 8 6 5 6 12 17 12 11 19 31 32 24 10 17 14 9 18 32 39 42 34 42 31 21 21 20 35
57 52 46 44 45 46 47 48 47 41 23 17 18 15 2 2 5 4 6 3 6 5 3 6 13 17 11 20 29 31 22 19 14 11 18 14 18 24 26 38 37 21 25 2 9 3 6
59 55 50 43 41 41 41 40 40 41 38 23 13 7 3 6 0 6 3 1 3 2 3 5 9 13 20 31 11 7 5 5 7 7 10 21 23 10 16 33 11 14 28 26 13 9 13
59 56 53 48 40 37 36 34 32 30 28 27 21 8 3 5 5 8 4 2 3 6 5 4 9 13 26 15 10 7 9 9 1 9 10 14 19 10 8 17 6 7 8 4 6 10 17
58 56 54 51 46 37 33 31 27 24 22 16 16 12 4 4 5 5 6 3 4 3 12 4 9 10 18 9 4 6 9 11 6 16 4 11 5 13 14 11 9 8 19 16 3 3 7
58 54 56 55 51 45 35 29 26 20 16 14 14 7 2 6 9 8 4 1 2 4 5 2 6 7 14 8 8 8 6 6 10 14 18 17 16 12 12 6 5 20 21 5 7 8 9
58 53 55 58 56 50 43 32 26 22 15 10 9 10 3 8 9 16 12 9 8 7 7 6 10 6 6 8 7 6 7 8 9 13 14 10 11 9 10 4 5 27 8 7 6 4 8
61 54 56 60 60 56 48 40 30 22 18 14 8 13 10 10 7 17 21 19 16 9 7 3 6 4 8 11 4 5 11 6 12 10 5 6 8 9 5 7 4 9 7 3 2 5 7
Wind_Direction_850mb
351 347 342 338 334 333 331 329 328 330 334 332 333 330 321 310 305 309 304 305 302 302 297 303 308 309 313 277 264 242 265 261 211 179 180 185 197 208 223 220 214 228 232 224 250 259 244
347 343 336 331 328 327 326 324 324 326 329 330 331 329 325 317 317 313 309 306 305 299 300 309 307 303 306 264 260 139 144 108 173 177 185 189 209 206 235 233 221 215 232 235 232 231 216
345 340 333 326 324 322 319 316 317 319 322 326 329 331 329 323 319 314 309 304 306 304 313 308 310 305 282 267 226 186 116 124 151 182 196 203 206 200 179 189 209 222 212 204 215 208 209
345 337 331 326 324 319 313 311 309 312 316 321 327 331 329 323 316 315 310 315 316 312 317 311 313 315 265 265 302 237 202 174 165 177 171 203 194 222 231 149 186 210 229 220 180 202 190
351 342 334 328 322 316 311 308 305 306 310 316 322 328 331 327 323 329 330 324 308 308 309 306 306 296 236 176 24 269 186 177 155 172 176 184 190 235 193 212 203 208 226 222 167 199 179
360 351 342 332 323 314 309 306 303 304 306 308 315 327 333 333 344 355 346 324 322 324 322 322 293 249 206 157 340 229 173 159 164 159 164 184 201 213 227 222 226 217 229 231 242 173 219
10 4 356 346 335 322 310 307 304 303 304 304 309 321 334 352 20 53 26 0 344 13 321 279 310 277 291 287 251 172 173 177 163 199 211 201 221 219 216 226 277 288 257 251 225 224 220
17 15 9 359 350 340 329 318 313 310 303 302 310 321 341 33 102 92 39 23 12 320 306 280 302 293 283 242 232 188 170 194 207 231 188 201 232 236 274 233 237 241 245 244 250 273 223
15 15 14 10 1 353 346 336 326 321 316 316 317 326 345 114 142 128 44 360 347 333 262 20 12 18 16 155 221 179 183 218 231 237 227 260 300 276 213 216 234 236 246 247 253 196 228
16 14 14 14 11 4 2 0 357 350 342 341 337 338 57 125 139 201 339 343 340 338 246 48 39 39 7 269 182 323 214 243 228 265 240 261 273 213 229 241 235 254 212 256 249 237 247
19 17 16 15 17 16 15 15 18 19 19 12 16 45 112 138 148 18 322 340 331 302 166 21 28 16 21 345 338 74 208 243 265 220 235 223 202 215 238 244 249 251 260 240 252 252 248
24 22 20 18 19 22 25 27 34 45 52 55 61 73 96 125 119 333 336 334 325 228 69 19 25 3 45 40 37 27 49 235 283 282 238 270 289 276 274 285 257 256 229 234 252 254 245
25 24 23 23 23 27 35 46 63 69 68 70 74 77 79 87 344 330 331 317 225 32 336 10 357 355 37 14 28 13 4 45 21 304 258 267 258 247 296 282 252 235 246 251 238 232 246
24 25 24 25 27 31 36 55 73 79 76 78 81 80 67 37 352 344 67 225 58 33 16 348 344 300 37 14 358 347 348 5 35 351 314 298 272 30 23 325 315 304 251 257 265 260 265
21 24 25 24 26 31 36 48 71 87 89 80 67 63 32 22 26 54 284 45 35 6 352 337 309 321 353 11 331 351 34 15 35 19 349 316 285 319 302 311 291 285 251 284 291 280 276
19 21 24 24 23 24 29 36 45 60 119 96 38 51 19 32 30 33 62 79 87 29 335 329 355 356 328 341 333 330 322 37 5 13 347 320 301 288 305 289 264 250 288 276 238 262 266
17 18 21 24 23 21 22 19 31 60 97 169 10 65 7 17 31 45 55 74 78 39 14 355 343 320 333 344 324 327 15 83 12 352 339 333 295 294 305 278 282 267 248 247 270 273 282
17 18 18 21 24 21 20 20 21 60 113 73 27 26 352 22 56 49 59 32 16 15 14 12 3 341 352 340 324 345 2 11 2 344 325 313 289 286 289 299 291 283 286 286 267 263 252
17 18 17 18 22 23 20 21 20 51 136 61 68 43 12 31 59 88 104 87 50 20 24 7 10 358 347 327 312 339 348 355 2 340 339 325 295 301 294 280 338 354 352 330 319 298 271
17 17 17 17 18 22 24 22 24 32 160 118 108 188 50 54 55 37 114 63 79 43 53 12 14 344 334 315 305 300 316 333 334 332 333 308 283 282 287 294 285 282 286 309 334 301 282
17 16 17 17 17 19 22 27 26 31 122 84 47 73 41 40 57 67 76 64 55 47 34 15 337 3 349 307 318 312 327 328 320 23 308 280 280 286 290 298 286 271 265 276 286 310 303
18 16 15 17 17 18 20 23 32 34 57 106 73 128 83 94 74 84 50 63 28 51 328 44 342 342 334 310 326 317 327 328 338 329 335 321 289 311 295 291 289 271 249 257 265 264 275
16 16 15 15 16 17 19 23 28 39 61 73 77 102 108 116 132 250 55 58 39 329 154 312 329 319 343 348 312 299 294 292 278 315 340 318 316 316 308 338 304 279 22 342 78 5 302
17 17 15 13 14 16 18 23 28 37 47 61 70 71 268 100 113 64 124 265 333 359 343 337 328 329 342 323 299 230 210 166 239 275 306 321 327 333 306 314 11 356 7 344 346 33 23
16 16 15 14 11 11 14 18 25 31 39 47 50 60 30 113 95 156 186 237 233 190 226 300 347 324 326 308 278 271 191 212 171 330 328 346 319 319 307 330 125 13 7 331 342 32 349
14 14 13 12 10 6 6 10 14 21 30 40 40 55 51 238 144 155 183 225 279 235 196 236 352 325 341 296 296 325 23 324 334 339 329 325 263 290 333 318 7 351 0 202 211 169 313
11 11 11 10 7 4 358 357 1 4 9 23 20 27 32 278 183 182 219 314 187 254 295 284 341 341 340 336 17 357 357 310 329 323 333 333 348 352 345 327 98 8 340 303 287 30 6
10 9 8 6 3 360 356 348 345 348 343 342 299 3 2 276 208 213 204 189 192 241 308 62 228 162 308 333 331 26 300 17 277 319 322 313 332 5 324 347 288 6 343 10 34 98 337
8 7 6 3 358 355 351 345 334 330 329 320 303 306 304 258 297 232 227 229 225 234 272 200 1 296 359 306 307 304 287 220 298 310 181 293 337 309 282 278 347 314 338 111 337 343 5